This is the latest recevied weather packets stored in our database for station/object KVDF. If no packets are shown the sender has not sent any weather packets the latest 1 day(s).
| Time | Temp. | Humidity | Pressure | Rain* | Wind** | Luminosity | Snow |
|---|---|---|---|---|---|---|---|
| 1778025223 | 26.67° C | 61% | 1014.2 hPa | - | 3.58 m/s, 340° | - | - |
| 1778024618 | 26.67° C | 61% | 1014.2 hPa | - | 3.58 m/s, 340° | - | - |
| 1778024022 | 26.67° C | 61% | 1013.9 hPa | - | 2.68 m/s, 330° | - | - |
| 1778023423 | 26.67° C | 61% | 1013.9 hPa | - | 2.68 m/s, 330° | - | - |
| 1778022823 | 28.89° C | 54% | 1014.2 hPa | - | 4.02 m/s, 310° | - | - |
| 1778022340 | 28.89° C | 54% | 1014.2 hPa | - | 4.02 m/s, 310° | - | - |
| 1778021624 | 30° C | 45% | 1014.2 hPa | - | 1.79 m/s, 300° | - | - |
| 1778021019 | 30° C | 45% | 1014.2 hPa | - | 1.79 m/s, 300° | - | - |
| 1778020421 | 30° C | 48% | 1013.9 hPa | - | 0 m/s | - | - |
| 1778019819 | 30° C | 48% | 1013.9 hPa | - | 0 m/s | - | - |
| 1778019220 | 30° C | 40% | 1013.9 hPa | - | 0 m/s | - | - |
| 1778018741 | 30° C | 40% | 1013.9 hPa | - | 0 m/s | - | - |
| 1778018024 | 30° C | 40% | 1013.9 hPa | - | 1.79 m/s, 60° | - | - |
| 1778017424 | 30° C | 40% | 1013.9 hPa | - | 1.79 m/s, 60° | - | - |
| 1778016823 | 30° C | 40% | 1013.9 hPa | - | 1.34 m/s, 70° | - | - |
| 1778016220 | 30.56° C | 38% | 1013.9 hPa | - | 2.24 m/s, 40° | - | - |
| 1778015621 | 30.56° C | 38% | 1013.9 hPa | - | 2.24 m/s, 40° | - | - |
| 1778015021 | 30.56° C | 38% | 1013.9 hPa | - | 2.24 m/s, 40° | - | - |
| 1778014420 | 30° C | 40% | 1013.9 hPa | - | 0 m/s | - | - |
| 1778013824 | 30° C | 40% | 1013.9 hPa | - | 0 m/s | - | - |
| 1778013221 | 30° C | 42% | 1014.2 hPa | - | 0 m/s | - | - |
| 1778012626 | 30° C | 42% | 1014.2 hPa | - | 0 m/s | - | - |
| 1778012020 | 30° C | 40% | 1014.2 hPa | - | 0 m/s | - | - |
| 1778011419 | 30° C | 40% | 1014.2 hPa | - | 0 m/s | - | - |
| 1778010823 | 30° C | 40% | 1014.6 hPa | - | 0 m/s | - | - |
* Rain since midnight (hover to see other rain measurements)
** Current wind speed in m/s (hover to see current wind gust speed)